STARLINK-1768 (46381 NORAD) Tracking and Keplerian Element Data

This shows tracking and keplerian element data for the satellite.

Feedback or suggestion? Click here.




ElementValue
Catalog46381
NameSTARLINK-1768
Epoch Orbit181
Epoch Day335.91670139
Epoch Year2020
RAAN356.3711
Inclination52.9974
Eccentricity0.0002225
Argument of Perigee21.3229
Mean Anonmoly89.2909
Mean Motion15.62746163
Decay Rate-0.00019334
L11 46381U 20062BJ 20335.91670139 -.00019334 00000-0 -20583-3 0 9994
L22 46381 52.9974 356.3711 0002225 21.3229 89.2909 15.62746163 1814

Live tracking and technical data element details for STARLINK-1768 (NORAD 46381). STARLINK-1768 can be tracked NOW for your location showing map with azimuth and elevation plus other details from your city location.

Track the satellite on the map from your city or location and see movement details for azimuth, elevation, latitude, longitude, range, height, and movement on the map or in text.







IsCatalogInMostPopularTable: catalog: 46381, numindb: 25
Update: records affected: 1



GetName: 46381 STARLINK-1768

Hit Count: updated at: Wed, 02 Dec 2020 06:11:34 GMT